DAL2995 UBBB-OKKK

Flight info

Callsign DAL2995
Flight time N/A
Altitude 31000
Route GILAB T444 XERBO N25 LALDA G670 RST R660 DEDLA Z725 PAXID N72 SAV L124 EGVEL B417 MAH DCT SIDAD
Aircraft MD88/M-SDFGIRWY/C

Departure

Time N/A
Airport Heydar Aliyev International Airport (UBBB)

Arrival

Time 2026-04-30 10:00
Airport Kuwait International Airport (OKKK)
Time Latitude Longitude Altitude Speed Heading
2026-04-30 08:49 35.64201 50.35575 30991 ft 428 kts 183°
2026-04-30 08:50 35.61220 50.35644 30995 ft 429 kts 183°
2026-04-30 08:50 35.55236 50.35783 30999 ft 431 kts 183°
2026-04-30 08:51 35.49244 50.35931 30996 ft 431 kts 183°
2026-04-30 08:51 35.43266 50.36088 31000 ft 429 kts 183°
2026-04-30 08:52 35.37355 50.36242 30997 ft 428 kts 183°
2026-04-30 08:52 35.31389 50.36394 30985 ft 429 kts 183°
2026-04-30 08:53 35.25411 50.36548 30994 ft 430 kts 183°
2026-04-30 08:53 35.19427 50.36699 30992 ft 430 kts 183°
2026-04-30 08:54 35.13430 50.36851 30989 ft 431 kts 183°
2026-04-30 08:54 35.07557 50.37001 30984 ft 431 kts 183°
2026-04-30 08:55 35.01549 50.37317 30986 ft 437 kts 173°
2026-04-30 08:55 34.95705 50.39598 30988 ft 444 kts 164°
2026-04-30 08:56 34.89927 50.42261 30966 ft 444 kts 165°
2026-04-30 08:56 34.84143 50.44849 30978 ft 442 kts 165°
2026-04-30 08:57 34.78354 50.47333 30982 ft 441 kts 166°
2026-04-30 08:57 34.72531 50.49580 30993 ft 434 kts 178°
2026-04-30 08:57 34.69565 50.49564 31007 ft 423 kts 194°
2026-04-30 08:58 34.66697 50.48831 30995 ft 421 kts 198°
2026-04-30 08:58 34.61042 50.46985 31002 ft 421 kts 200°
2026-04-30 08:59 34.55396 50.45080 31007 ft 420 kts 199°
2026-04-30 08:59 34.49782 50.43283 31010 ft 415 kts 199°
2026-04-30 09:00 34.45150 50.41854 31038 ft 413 kts 198°
2026-04-30 09:00 34.38643 50.39850 31037 ft 416 kts 199°
2026-04-30 09:01 34.33028 50.38114 31006 ft 416 kts 199°
2026-04-30 09:01 34.28370 50.36682 31023 ft 416 kts 198°
2026-04-30 09:02 34.19951 50.34104 31041 ft 417 kts 199°
2026-04-30 09:02 34.14333 50.32356 31071 ft 416 kts 199°
2026-04-30 09:03 34.08744 50.30656 31033 ft 413 kts 198°
2026-04-30 09:03 34.03222 50.28965 31666 ft 402 kts 199°
2026-04-30 09:04 34.00538 50.28134 32226 ft 393 kts 200°
2026-04-30 09:04 33.97916 50.27332 32816 ft 384 kts 200°
2026-04-30 09:04 33.95364 50.26559 33386 ft 373 kts 200°
2026-04-30 09:04 33.92873 50.25809 33526 ft 367 kts 200°
2026-04-30 09:05 33.90349 50.25025 32533 ft 383 kts 200°
2026-04-30 09:05 33.87710 50.24188 31764 ft 400 kts 200°
2026-04-30 09:05 33.84992 50.23340 31413 ft 406 kts 199°
2026-04-30 09:05 33.82225 50.22491 30886 ft 417 kts 199°
2026-04-30 09:06 33.79437 50.21649 31103 ft 404 kts 199°
2026-04-30 09:06 33.76715 50.20840 31112 ft 409 kts 199°
2026-04-30 09:06 33.71193 50.19166 31077 ft 417 kts 199°
2026-04-30 09:07 33.65547 50.17444 31085 ft 420 kts 199°
2026-04-30 09:07 33.59909 50.15738 31068 ft 416 kts 199°
2026-04-30 09:08 33.54317 50.14038 31066 ft 414 kts 199°
2026-04-30 09:08 33.48710 50.12331 31074 ft 416 kts 199°
2026-04-30 09:09 33.43099 50.10630 31078 ft 416 kts 199°
2026-04-30 09:09 33.37495 50.08933 31074 ft 415 kts 199°
2026-04-30 09:10 33.31893 50.07239 31071 ft 414 kts 199°
2026-04-30 09:10 33.26328 50.05567 31099 ft 416 kts 199°
2026-04-30 09:11 33.20780 50.03894 31096 ft 416 kts 199°
2026-04-30 09:11 33.15163 50.02205 31093 ft 415 kts 199°
2026-04-30 09:12 33.09577 50.00531 31097 ft 413 kts 199°
2026-04-30 09:12 33.04006 49.98878 31104 ft 413 kts 200°
2026-04-30 09:13 32.98436 49.97211 31111 ft 414 kts 200°
2026-04-30 09:13 32.92835 49.95542 31104 ft 415 kts 200°
2026-04-30 09:14 32.87226 49.93852 31112 ft 416 kts 200°
2026-04-30 09:14 32.81641 49.92176 31122 ft 414 kts 200°
2026-04-30 09:15 32.76036 49.90508 31125 ft 416 kts 200°
2026-04-30 09:15 32.70404 49.88824 31104 ft 417 kts 200°
2026-04-30 09:16 32.64846 49.87177 31108 ft 412 kts 200°
2026-04-30 09:16 32.59267 49.85525 31144 ft 416 kts 200°
2026-04-30 09:17 32.53652 49.83862 31112 ft 416 kts 200°
2026-04-30 09:17 32.48044 49.82175 31068 ft 414 kts 201°
2026-04-30 09:18 32.42482 49.80543 31079 ft 410 kts 201°
2026-04-30 09:18 32.36944 49.78908 31071 ft 411 kts 201°
2026-04-30 09:19 32.31381 49.77257 31055 ft 413 kts 201°
2026-04-30 09:19 32.25805 49.75604 31052 ft 413 kts 201°
2026-04-30 09:20 32.20245 49.73945 31039 ft 410 kts 201°
2026-04-30 09:20 32.14729 49.72402 31024 ft 405 kts 202°
2026-04-30 09:21 32.09240 49.70772 31019 ft 408 kts 202°
2026-04-30 09:21 32.03729 49.69116 30992 ft 409 kts 202°
2026-04-30 09:22 31.98182 49.67537 30964 ft 411 kts 202°
2026-04-30 09:22 31.92670 49.65869 30982 ft 410 kts 202°
2026-04-30 09:23 31.87159 49.64264 30972 ft 406 kts 202°
2026-04-30 09:23 31.81695 49.62653 30969 ft 407 kts 202°
2026-04-30 09:24 31.76164 49.61063 30937 ft 410 kts 202°
2026-04-30 09:24 31.70708 49.59333 30944 ft 401 kts 206°
2026-04-30 09:25 31.65428 49.57217 30949 ft 401 kts 207°
2026-04-30 09:25 31.60140 49.55081 30946 ft 402 kts 207°
2026-04-30 09:26 31.54823 49.52992 30936 ft 403 kts 207°
2026-04-30 09:26 31.49496 49.50935 30919 ft 403 kts 206°
2026-04-30 09:27 31.44158 49.48876 30913 ft 404 kts 207°
2026-04-30 09:27 31.38818 49.46809 30910 ft 405 kts 207°
2026-04-30 09:28 31.33481 49.44748 30911 ft 403 kts 207°
2026-04-30 09:28 31.28201 49.42716 30870 ft 402 kts 207°
2026-04-30 09:29 31.22894 49.40676 30887 ft 402 kts 207°
2026-04-30 09:29 31.17571 49.38622 30888 ft 403 kts 207°
2026-04-30 09:30 31.12239 49.36569 30889 ft 404 kts 207°
2026-04-30 09:30 31.06906 49.34519 30887 ft 403 kts 207°
2026-04-30 09:31 31.01592 49.32483 30865 ft 401 kts 207°
2026-04-30 09:31 30.96280 49.30444 30886 ft 403 kts 207°
2026-04-30 09:32 30.90951 49.28401 30886 ft 404 kts 207°
2026-04-30 09:32 30.85610 49.26357 30891 ft 404 kts 207°
2026-04-30 09:33 30.80282 49.24323 30895 ft 402 kts 207°
2026-04-30 09:33 30.74971 49.22297 30886 ft 402 kts 207°
2026-04-30 09:34 30.69642 49.20263 30898 ft 404 kts 207°
2026-04-30 09:34 30.64302 49.18229 30904 ft 404 kts 207°
2026-04-30 09:35 30.58953 49.16196 30903 ft 405 kts 207°
2026-04-30 09:35 30.53979 49.13507 30912 ft 385 kts 224°
2026-04-30 09:36 30.49890 49.09542 30896 ft 383 kts 227°
2026-04-30 09:36 30.45885 49.05528 30905 ft 384 kts 227°
2026-04-30 09:37 30.41809 49.01509 30905 ft 385 kts 226°
2026-04-30 09:37 30.37688 48.97526 30906 ft 386 kts 226°
2026-04-30 09:38 30.33552 48.93559 30739 ft 389 kts 226°
2026-04-30 09:38 30.31449 48.91537 30213 ft 396 kts 226°
2026-04-30 09:38 30.29328 48.89500 29575 ft 395 kts 226°
2026-04-30 09:39 30.27228 48.87488 28881 ft 390 kts 226°
2026-04-30 09:39 30.25154 48.85500 28178 ft 385 kts 225°
2026-04-30 09:39 30.23104 48.83532 27517 ft 381 kts 225°
2026-04-30 09:39 30.21075 48.81588 26854 ft 377 kts 225°
2026-04-30 09:40 30.19060 48.79662 26173 ft 374 kts 225°
2026-04-30 09:40 30.17064 48.77753 25534 ft 371 kts 225°
2026-04-30 09:40 30.15080 48.75857 24894 ft 369 kts 225°
2026-04-30 09:40 30.13108 48.73970 24248 ft 367 kts 225°
2026-04-30 09:41 30.11146 48.72092 23606 ft 364 kts 225°
2026-04-30 09:41 30.09209 48.70240 22854 ft 359 kts 225°
2026-04-30 09:41 30.07304 48.68419 22155 ft 353 kts 225°
2026-04-30 09:41 30.05474 48.66673 21530 ft 346 kts 225°
2026-04-30 09:42 30.03635 48.64917 20904 ft 340 kts 225°
2026-04-30 09:42 30.01829 48.63193 20290 ft 334 kts 225°
2026-04-30 09:42 30.00054 48.61498 19687 ft 329 kts 225°
2026-04-30 09:42 29.98306 48.59827 19115 ft 324 kts 225°
2026-04-30 09:43 29.96597 48.58191 18531 ft 325 kts 225°
2026-04-30 09:43 29.94825 48.56488 17936 ft 339 kts 225°
2026-04-30 09:43 29.93049 48.54791 17752 ft 321 kts 225°
2026-04-30 09:43 29.91380 48.53216 17652 ft 300 kts 225°
2026-04-30 09:44 29.89812 48.51739 17576 ft 281 kts 225°
2026-04-30 09:44 29.88309 48.50401 17487 ft 269 kts 217°
2026-04-30 09:44 29.86567 48.49530 17390 ft 284 kts 203°
2026-04-30 09:44 29.84537 48.49005 16961 ft 312 kts 198°
2026-04-30 09:45 29.82373 48.48577 16511 ft 316 kts 196°
2026-04-30 09:45 29.80198 48.48207 16030 ft 315 kts 195°
2026-04-30 09:45 29.78031 48.47872 15551 ft 313 kts 194°
2026-04-30 09:45 29.75881 48.47551 15064 ft 311 kts 194°
2026-04-30 09:46 29.73743 48.47228 14558 ft 309 kts 194°
2026-04-30 09:46 29.71617 48.46896 14037 ft 308 kts 194°
2026-04-30 09:46 29.69502 48.46556 13503 ft 307 kts 194°
2026-04-30 09:46 29.67398 48.46210 12979 ft 304 kts 194°
2026-04-30 09:47 29.65310 48.45862 12489 ft 302 kts 194°
2026-04-30 09:47 29.63235 48.45513 12016 ft 301 kts 194°
2026-04-30 09:47 29.61165 48.45164 11540 ft 300 kts 194°
2026-04-30 09:47 29.59104 48.44815 11077 ft 299 kts 194°
2026-04-30 09:48 29.57051 48.44465 10621 ft 297 kts 194°
2026-04-30 09:48 29.55046 48.44127 10425 ft 284 kts 194°
2026-04-30 09:48 29.53133 48.43811 10330 ft 274 kts 194°
2026-04-30 09:48 29.51227 48.43489 10215 ft 280 kts 194°
2026-04-30 09:49 29.49285 48.43154 10094 ft 283 kts 194°
2026-04-30 09:49 29.47329 48.42819 9952 ft 285 kts 194°
2026-04-30 09:49 29.45343 48.42478 9570 ft 292 kts 194°
2026-04-30 09:49 29.43339 48.42136 9098 ft 290 kts 194°
2026-04-30 09:50 29.41359 48.41805 8731 ft 283 kts 193°
2026-04-30 09:50 29.39430 48.41488 8540 ft 278 kts 193°
2026-04-30 09:50 29.37509 48.41169 8385 ft 280 kts 193°
2026-04-30 09:50 29.35578 48.40841 8196 ft 282 kts 195°
2026-04-30 09:51 29.33772 48.40128 7886 ft 275 kts 215°
2026-04-30 09:51 29.32136 48.38982 7713 ft 271 kts 218°
2026-04-30 09:51 29.30565 48.37841 7521 ft 271 kts 218°
2026-04-30 09:51 29.28987 48.36663 7330 ft 271 kts 219°
2026-04-30 09:52 29.27430 48.35458 7157 ft 270 kts 220°
2026-04-30 09:52 29.25879 48.34235 6982 ft 271 kts 220°
2026-04-30 09:52 29.24328 48.33009 6798 ft 271 kts 220°
2026-04-30 09:52 29.22774 48.31788 6618 ft 271 kts 219°
2026-04-30 09:53 29.21217 48.30574 6447 ft 271 kts 219°
2026-04-30 09:53 29.20162 48.29756 6322 ft 271 kts 219°
2026-04-30 09:53 29.18623 48.28567 6156 ft 271 kts 219°
2026-04-30 09:53 29.17067 48.27365 6022 ft 269 kts 219°
2026-04-30 09:54 29.15519 48.26169 5873 ft 268 kts 219°
2026-04-30 09:54 29.13967 48.24974 5752 ft 270 kts 219°
2026-04-30 09:54 29.12437 48.23746 5625 ft 266 kts 226°
2026-04-30 09:54 29.11231 48.22195 5529 ft 258 kts 243°
2026-04-30 09:55 29.10513 48.20332 5270 ft 259 kts 258°
2026-04-30 09:55 29.10111 48.18320 4771 ft 260 kts 263°
2026-04-30 09:55 29.09824 48.16282 4293 ft 259 kts 265°
2026-04-30 09:55 29.09597 48.14255 3971 ft 252 kts 266°
2026-04-30 09:56 29.09410 48.12289 3721 ft 246 kts 267°
2026-04-30 09:56 29.09232 48.10359 3412 ft 243 kts 266°
2026-04-30 09:56 29.09061 48.08427 3082 ft 246 kts 270°
2026-04-30 09:56 29.09187 48.06491 2773 ft 243 kts 288°
2026-04-30 09:57 29.10022 48.04895 2487 ft 238 kts 319°
2026-04-30 09:57 29.11329 48.03685 2192 ft 239 kts 322°
2026-04-30 09:57 29.12631 48.02568 1903 ft 226 kts 326°
2026-04-30 09:57 29.13933 48.01719 1644 ft 206 kts 335°
2026-04-30 09:58 29.15169 48.01045 1432 ft 190 kts 333°
2026-04-30 09:58 29.16345 48.00390 1300 ft 190 kts 332°
2026-04-30 09:58 29.17495 47.99750 1193 ft 180 kts 331°
2026-04-30 09:58 29.18618 47.99087 851 ft 184 kts 332°
2026-04-30 09:59 29.20703 47.97910 336 ft 154 kts 336°
2026-04-30 09:59 29.22537 47.96955 164 ft 119 kts 335°
2026-04-30 10:00 29.22961 47.96736 163 ft 28 kts 335°
2026-04-30 10:00 29.23069 47.96690 163 ft 8 kts
2026-04-30 10:01 29.19648 47.98470 520 ft 165 kts 336°
2026-04-30 10:01 29.20153 47.98195 422 ft 155 kts 335°
2026-04-30 10:01 29.20771 47.97875 323 ft 154 kts 336°
2026-04-30 10:02 29.21970 47.97252 170 ft 141 kts 336°
2026-04-30 10:02 29.22500 47.96974 164 ft 122 kts 335°
2026-04-30 10:02 29.21603 47.97449 205 ft 140 kts 336°
2026-04-30 10:02 29.22170 47.97147 166 ft 135 kts 336°
2026-04-30 10:03 29.21296 47.97609 236 ft 154 kts 336°
2026-04-30 10:07 29.21640 47.97430 200 ft 151 kts 336°
2026-04-30 10:08 29.22000 47.97235 169 ft 140 kts 336°
2026-04-30 10:08 29.22379 47.97038 165 ft 128 kts 335°
2026-04-30 10:08 29.21031 47.97744 276 ft 160 kts 336°
2026-04-30 10:09 29.21054 47.97732 273 ft 155 kts 336°
2026-04-30 10:09 29.21700 47.97398 193 ft 149 kts 336°
2026-04-30 10:09 29.22241 47.97111 166 ft 133 kts 336°
2026-04-30 10:09 29.22674 47.96884 163 ft 0 kts 336°
2026-04-30 10:10 29.22824 47.96807 163 ft 42 kts 336°
2026-04-30 10:10 29.22840 47.96799 163 ft 39 kts 336°
2026-04-30 10:11 29.21316 47.97599 208 ft 155 kts 336°
2026-04-30 10:12 29.21031 47.97744 276 ft 154 kts 336°
2026-04-30 10:12 29.21205 47.97655 249 ft 154 kts 337°
2026-04-30 10:13 29.21493 47.97507 213 ft 154 kts 336°
2026-04-30 10:13 29.20772 47.97874 320 ft 155 kts 336°
2026-04-30 10:13 29.20867 47.97826 304 ft 155 kts 336°
2026-04-30 10:13 29.21525 47.97490 210 ft 153 kts 336°
2026-04-30 10:14 29.22097 47.97184 168 ft 137 kts 335°
2026-04-30 10:14 29.22595 47.96925 164 ft 111 kts 335°
2026-04-30 10:20 29.23116 47.96761 165 ft 0 kts 69°
2026-04-30 10:21 29.23130 47.96800 166 ft 7 kts 66°
2026-04-30 10:22 29.23153 47.96849 166 ft 7 kts 47°
2026-04-30 10:22 29.23194 47.96859 165 ft 7 kts 343°
2026-04-30 10:22 29.23258 47.96826 165 ft 13 kts 335°
2026-04-30 10:22 29.23353 47.96781 165 ft 14 kts 357°
2026-04-30 10:23 29.23424 47.96864 165 ft 17 kts 65°
2026-04-30 10:23 29.23483 47.97007 166 ft 22 kts 64°
2026-04-30 10:23 29.23539 47.97156 167 ft 12 kts 64°
2026-04-30 10:23 29.23584 47.97265 167 ft 18 kts 66°
2026-04-30 10:24 29.23638 47.97407 167 ft 12 kts 66°
2026-04-30 10:24 29.23715 47.97457 167 ft 15 kts 336°
2026-04-30 10:24 29.23778 47.97423 167 ft 9 kts 334°